Location: Estes P
(40.3770°N, 105.5210°W)
Time: 06:27:55
(UTC-07:00)

Hubble Space Telescope - Visible Passes

Search period start: 21 February 2018 00:00
Search period end: 03 March 2018 00:00
Orbit: 537 x 541 km, 28.5° (Epoch: 20 February)

Date Brightness Start Highest point End Pass type
(mag) Time Alt. Az. Time Alt. Az. Time Alt. Az.
21 Feb 3.2 05:07:37 11° SSW 05:09:10 12° S 05:10:56 10° SE visible
22 Feb 3.1 04:57:58 13° S 04:58:45 14° S 05:00:52 10° SE visible
23 Feb 3.0 04:48:18 15° S 04:48:21 15° S 04:50:40 10° SE visible
24 Feb 3.1 04:38:36 15° SSE 04:38:36 15° SSE 04:40:23 10° SE visible
24 Feb 3.1 06:16:26 10° SW 06:18:26 13° S 06:20:25 10° SSE visible
25 Feb 3.2 04:28:54 14° SSE 04:28:54 14° SSE 04:30:02 10° SE visible
25 Feb 3.1 06:06:26 10° SW 06:08:01 12° SSW 06:09:37 10° S visible
26 Feb 3.5 04:19:12 11° SSE 04:19:12 11° SSE 04:19:38 10° SE visible
26 Feb 3.2 05:56:46 10° SSW 05:57:37 11° SSW 05:58:27 10° S visible
